Year,Month,Day,Hour,Minute,Value (Times are PST for barometer in hPa)
2017,04,07,00,00,998.14
2017,04,07,00,01,998.14
2017,04,07,00,02,998.07
2017,04,07,00,03,998.00
2017,04,07,00,04,998.04
2017,04,07,00,05,997.97
2017,04,07,00,06,997.90
2017,04,07,00,07,997.90
2017,04,07,00,08,997.90
2017,04,07,00,09,997.87
2017,04,07,00,10,997.90
2017,04,07,00,11,997.87
2017,04,07,00,12,997.70
2017,04,07,00,13,997.77
2017,04,07,00,14,997.73
2017,04,07,00,15,997.66
2017,04,07,00,16,997.60
2017,04,07,00,17,997.53
2017,04,07,00,18,997.56
2017,04,07,00,19,997.55
2017,04,07,00,20,997.43
2017,04,07,00,21,997.46
2017,04,07,00,22,997.53
2017,04,07,00,23,997.50
2017,04,07,00,24,997.53
2017,04,07,00,25,997.43
2017,04,07,00,26,997.50
2017,04,07,00,27,997.43
2017,04,07,00,28,997.43
2017,04,07,00,29,997.46
2017,04,07,00,30,997.53
2017,04,07,00,31,997.53
2017,04,07,00,32,997.53
2017,04,07,00,33,997.53
2017,04,07,00,34,997.53
2017,04,07,00,35,997.53
2017,04,07,00,36,997.55
2017,04,07,00,37,997.46
2017,04,07,00,38,997.46
2017,04,07,00,39,997.46
2017,04,07,00,40,997.50
2017,04,07,00,41,997.43
2017,04,07,00,42,997.36
2017,04,07,00,43,997.46
2017,04,07,00,44,997.43
2017,04,07,00,45,997.36
2017,04,07,00,46,997.22
2017,04,07,00,47,997.12
2017,04,07,00,48,997.05
2017,04,07,00,49,997.04
2017,04,07,00,50,996.92
2017,04,07,00,51,996.85
2017,04,07,00,52,997.02
2017,04,07,00,53,996.99
2017,04,07,00,54,996.95
2017,04,07,00,55,996.95
2017,04,07,00,56,996.95
2017,04,07,00,57,996.99
2017,04,07,00,58,996.89
2017,04,07,00,59,996.92
2017,04,07,01,00,996.85
2017,04,07,01,01,996.82
2017,04,07,01,02,996.75
2017,04,07,01,03,996.75
2017,04,07,01,04,996.75
2017,04,07,01,05,996.74
2017,04,07,01,06,996.61
2017,04,07,01,07,996.55
2017,04,07,01,08,996.55
2017,04,07,01,09,996.51
2017,04,07,01,10,996.48
2017,04,07,01,11,996.48
2017,04,07,01,12,996.41
2017,04,07,01,13,996.34
2017,04,07,01,14,996.34
2017,04,07,01,15,996.34
2017,04,07,01,16,996.28
2017,04,07,01,17,996.24
2017,04,07,01,18,996.17
2017,04,07,01,19,996.11
2017,04,07,01,20,996.17
2017,04,07,01,21,996.17
2017,04,07,01,22,996.11
2017,04,07,01,23,996.04
2017,04,07,01,24,996.01
2017,04,07,01,25,995.90
2017,04,07,01,26,995.94
2017,04,07,01,27,995.94
2017,04,07,01,28,995.94
2017,04,07,01,29,995.90
2017,04,07,01,30,995.87
2017,04,07,01,31,995.87
2017,04,07,01,32,995.84
2017,04,07,01,33,995.77
2017,04,07,01,34,995.70
2017,04,07,01,35,995.62
2017,04,07,01,36,995.53
2017,04,07,01,37,995.46
2017,04,07,01,38,995.40
2017,04,07,01,39,995.36
2017,04,07,01,40,995.29
2017,04,07,01,41,995.36
2017,04,07,01,42,995.40
2017,04,07,01,43,995.36
2017,04,07,01,44,995.33
2017,04,07,01,45,995.26
2017,04,07,01,46,995.23
2017,04,07,01,47,995.19
2017,04,07,01,48,995.16
2017,04,07,01,49,995.16
2017,04,07,01,50,995.16
2017,04,07,01,51,995.06
2017,04,07,01,52,994.98
2017,04,07,01,53,994.89
2017,04,07,01,54,994.82
2017,04,07,01,55,994.79
2017,04,07,01,56,994.79
2017,04,07,01,57,994.78
2017,04,07,01,58,994.68
2017,04,07,01,59,994.62
2017,04,07,02,00,994.55
2017,04,07,02,01,994.48
2017,04,07,02,02,994.48
2017,04,07,02,03,994.48
2017,04,07,02,04,994.41
2017,04,07,02,05,994.38
2017,04,07,02,06,994.38
2017,04,07,02,07,994.30
2017,04,07,02,08,994.21
2017,04,07,02,09,994.28
2017,04,07,02,10,994.27
2017,04,07,02,11,994.14
2017,04,07,02,12,994.04
2017,04,07,02,13,994.10
2017,04,07,02,14,994.01
2017,04,07,02,15,993.97
2017,04,07,02,16,994.03
2017,04,07,02,17,993.93
2017,04,07,02,18,993.80
2017,04,07,02,19,993.70
2017,04,07,02,20,993.74
2017,04,07,02,21,993.67
2017,04,07,02,22,993.63
2017,04,07,02,23,993.57
2017,04,07,02,24,993.53
2017,04,07,02,25,993.53
2017,04,07,02,26,993.43
2017,04,07,02,27,993.40
2017,04,07,02,28,993.33
2017,04,07,02,29,993.26
2017,04,07,02,30,993.16
2017,04,07,02,31,993.15
2017,04,07,02,32,993.03
2017,04,07,02,33,993.09
2017,04,07,02,34,993.06
2017,04,07,02,35,992.96
2017,04,07,02,36,992.86
2017,04,07,02,37,992.79
2017,04,07,02,38,992.79
2017,04,07,02,39,992.72
2017,04,07,02,40,992.69
2017,04,07,02,41,992.61
2017,04,07,02,42,992.42
2017,04,07,02,43,992.42
2017,04,07,02,44,992.45
2017,04,07,02,45,992.42
2017,04,07,02,46,992.28
2017,04,07,02,47,992.28
2017,04,07,02,48,992.31
2017,04,07,02,49,992.27
2017,04,07,02,50,992.14
2017,04,07,02,51,992.18
2017,04,07,02,52,992.11
2017,04,07,02,53,992.17
2017,04,07,02,54,992.08
2017,04,07,02,55,992.11
2017,04,07,02,56,992.04
2017,04,07,02,57,991.98
2017,04,07,02,58,991.97
2017,04,07,02,59,991.87
2017,04,07,03,00,991.84
2017,04,07,03,01,991.77
2017,04,07,03,02,991.77
2017,04,07,03,03,991.74
2017,04,07,03,04,991.74
2017,04,07,03,05,991.74
2017,04,07,03,06,991.70
2017,04,07,03,07,991.60
2017,04,07,03,08,991.64
2017,04,07,03,09,991.60
2017,04,07,03,10,991.64
2017,04,07,03,11,991.51
2017,04,07,03,12,991.43
2017,04,07,03,13,991.47
2017,04,07,03,14,991.47
2017,04,07,03,15,991.31
2017,04,07,03,16,991.30
2017,04,07,03,17,991.37
2017,04,07,03,18,991.40
2017,04,07,03,19,991.43
2017,04,07,03,20,991.34
2017,04,07,03,21,991.23
2017,04,07,03,22,991.20
2017,04,07,03,23,991.20
2017,04,07,03,24,991.16
2017,04,07,03,25,991.16
2017,04,07,03,26,991.09
2017,04,07,03,27,991.09
2017,04,07,03,28,991.03
2017,04,07,03,29,991.06
2017,04,07,03,30,990.99
2017,04,07,03,31,990.99
2017,04,07,03,32,991.03
2017,04,07,03,33,990.96
2017,04,07,03,34,990.86
2017,04,07,03,35,990.82
2017,04,07,03,36,990.89
2017,04,07,03,37,990.86
2017,04,07,03,38,990.79
2017,04,07,03,39,990.76
2017,04,07,03,40,990.72
2017,04,07,03,41,990.69
2017,04,07,03,42,990.69
2017,04,07,03,43,990.69
2017,04,07,03,44,990.62
2017,04,07,03,45,990.62
2017,04,07,03,46,990.59
2017,04,07,03,47,990.55
2017,04,07,03,48,990.52
2017,04,07,03,49,990.45
2017,04,07,03,50,990.52
2017,04,07,03,51,990.49
2017,04,07,03,52,990.49
2017,04,07,03,53,990.52
2017,04,07,03,54,990.55
2017,04,07,03,55,990.45
2017,04,07,03,56,990.45
2017,04,07,03,57,990.49
2017,04,07,03,58,990.39
2017,04,07,03,59,990.32
2017,04,07,04,00,990.38
2017,04,07,04,01,990.35
2017,04,07,04,02,990.38
2017,04,07,04,03,990.38
2017,04,07,04,04,990.38
2017,04,07,04,05,990.32
2017,04,07,04,06,990.28
2017,04,07,04,07,990.28
2017,04,07,04,08,990.35
2017,04,07,04,09,990.42
2017,04,07,04,10,990.29
2017,04,07,04,11,990.28
2017,04,07,04,12,990.21
2017,04,07,04,13,990.21
2017,04,07,04,14,990.15
2017,04,07,04,15,990.15
2017,04,07,04,16,990.18
2017,04,07,04,17,990.09
2017,04,07,04,18,990.04
2017,04,07,04,19,990.01
2017,04,07,04,20,989.94
2017,04,07,04,21,989.91
2017,04,07,04,22,989.98
2017,04,07,04,23,990.01
2017,04,07,04,24,989.91
2017,04,07,04,25,989.81
2017,04,07,04,26,989.77
2017,04,07,04,27,989.77
2017,04,07,04,28,989.74
2017,04,07,04,29,989.77
2017,04,07,04,30,989.71
2017,04,07,04,31,989.64
2017,04,07,04,32,989.64
2017,04,07,04,33,989.60
2017,04,07,04,34,989.57
2017,04,07,04,35,989.64
2017,04,07,04,36,989.57
2017,04,07,04,37,989.47
2017,04,07,04,38,989.40
2017,04,07,04,39,989.37
2017,04,07,04,40,989.37
2017,04,07,04,41,989.40
2017,04,07,04,42,989.44
2017,04,07,04,43,989.47
2017,04,07,04,44,989.40
2017,04,07,04,45,989.44
2017,04,07,04,46,989.37
2017,04,07,04,47,989.40
2017,04,07,04,48,989.44
2017,04,07,04,49,989.40
2017,04,07,04,50,989.37
2017,04,07,04,51,989.40
2017,04,07,04,52,989.44
2017,04,07,04,53,989.40
2017,04,07,04,54,989.33
2017,04,07,04,55,989.37
2017,04,07,04,56,989.33
2017,04,07,04,57,989.30
2017,04,07,04,58,989.30
2017,04,07,04,59,989.23
2017,04,07,05,00,989.20
2017,04,07,05,01,989.20
2017,04,07,05,02,989.16
2017,04,07,05,03,989.16
2017,04,07,05,04,989.23
2017,04,07,05,05,989.16
2017,04,07,05,06,989.10
2017,04,07,05,07,989.06
2017,04,07,05,08,989.03
2017,04,07,05,09,989.00
2017,04,07,05,10,988.93
2017,04,07,05,11,988.86
2017,04,07,05,12,988.89
2017,04,07,05,13,988.96
2017,04,07,05,14,988.93
2017,04,07,05,15,988.89
2017,04,07,05,16,988.93
2017,04,07,05,17,988.89
2017,04,07,05,18,988.89
2017,04,07,05,19,988.93
2017,04,07,05,20,988.89
2017,04,07,05,21,988.93
2017,04,07,05,22,989.00
2017,04,07,05,23,988.96
2017,04,07,05,24,988.93
2017,04,07,05,25,989.00
2017,04,07,05,26,989.06
2017,04,07,05,27,989.03
2017,04,07,05,28,989.03
2017,04,07,05,29,989.12
2017,04,07,05,30,989.13
2017,04,07,05,31,989.06
2017,04,07,05,32,988.97
2017,04,07,05,33,989.00
2017,04,07,05,34,989.00
2017,04,07,05,35,988.96
2017,04,07,05,36,989.06
2017,04,07,05,37,989.13
2017,04,07,05,38,989.10
2017,04,07,05,39,989.10
2017,04,07,05,40,989.16
2017,04,07,05,41,989.16
2017,04,07,05,42,989.16
2017,04,07,05,43,989.10
2017,04,07,05,44,989.06
2017,04,07,05,45,989.10
2017,04,07,05,46,989.16
2017,04,07,05,47,989.10
2017,04,07,05,48,989.03
2017,04,07,05,49,989.06
2017,04,07,05,50,989.00
2017,04,07,05,51,988.96
2017,04,07,05,52,989.02
2017,04,07,05,53,989.06
2017,04,07,05,54,989.03
2017,04,07,05,55,989.06
2017,04,07,05,56,989.03
2017,04,07,05,57,989.10
2017,04,07,05,58,989.16
2017,04,07,05,59,989.10
2017,04,07,06,00,989.13
2017,04,07,06,01,989.10
2017,04,07,06,02,989.13
2017,04,07,06,03,989.20
2017,04,07,06,04,989.13
2017,04,07,06,05,989.16
2017,04,07,06,06,989.07
2017,04,07,06,07,989.13
2017,04,07,06,08,989.16
2017,04,07,06,09,989.13
2017,04,07,06,10,989.16
2017,04,07,06,11,989.23
2017,04,07,06,12,989.20
2017,04,07,06,13,989.16
2017,04,07,06,14,989.23
2017,04,07,06,15,989.16
2017,04,07,06,16,989.23
2017,04,07,06,17,989.20
2017,04,07,06,18,989.23
2017,04,07,06,19,989.20
2017,04,07,06,20,989.20
2017,04,07,06,21,989.29
2017,04,07,06,22,989.20
2017,04,07,06,23,989.16
2017,04,07,06,24,989.16
2017,04,07,06,25,989.20
2017,04,07,06,26,989.13
2017,04,07,06,27,989.10
2017,04,07,06,28,989.16
2017,04,07,06,29,989.06
2017,04,07,06,30,989.06
2017,04,07,06,31,989.10
2017,04,07,06,32,989.10
2017,04,07,06,33,989.06
2017,04,07,06,34,989.03
2017,04,07,06,35,989.03
2017,04,07,06,36,989.03
2017,04,07,06,37,989.06
2017,04,07,06,38,989.06
2017,04,07,06,39,989.00
2017,04,07,06,40,988.96
2017,04,07,06,41,988.96
2017,04,07,06,42,989.03
2017,04,07,06,43,989.00
2017,04,07,06,44,988.96
2017,04,07,06,45,988.96
2017,04,07,06,46,989.00
2017,04,07,06,47,989.00
2017,04,07,06,48,989.00
2017,04,07,06,49,989.00
2017,04,07,06,50,989.00
2017,04,07,06,51,988.96
2017,04,07,06,52,989.00
2017,04,07,06,53,989.00
2017,04,07,06,54,989.00
2017,04,07,06,55,989.03
2017,04,07,06,56,989.03
2017,04,07,06,57,989.03
2017,04,07,06,58,989.06
2017,04,07,06,59,989.06
2017,04,07,07,00,989.10
2017,04,07,07,01,989.01
2017,04,07,07,02,989.00
2017,04,07,07,03,989.00
2017,04,07,07,04,988.93
2017,04,07,07,05,988.93
2017,04,07,07,06,988.86
2017,04,07,07,07,988.83
2017,04,07,07,08,988.83
2017,04,07,07,09,988.86
2017,04,07,07,10,988.83
2017,04,07,07,11,988.76
2017,04,07,07,12,988.79
2017,04,07,07,13,988.69
2017,04,07,07,14,988.69
2017,04,07,07,15,988.76
2017,04,07,07,16,988.76
2017,04,07,07,17,988.76
2017,04,07,07,18,988.76
2017,04,07,07,19,988.76
2017,04,07,07,20,988.76
2017,04,07,07,21,988.76
2017,04,07,07,22,988.69
2017,04,07,07,23,988.69
2017,04,07,07,24,988.66
2017,04,07,07,25,988.59
2017,04,07,07,26,988.55
2017,04,07,07,27,988.49
2017,04,07,07,28,988.49
2017,04,07,07,29,988.52
2017,04,07,07,30,988.55
2017,04,07,07,31,988.49
2017,04,07,07,32,988.42
2017,04,07,07,33,988.49
2017,04,07,07,34,988.52
2017,04,07,07,35,988.55
2017,04,07,07,36,988.49
2017,04,07,07,37,988.55
2017,04,07,07,38,988.55
2017,04,07,07,39,988.55
2017,04,07,07,40,988.62
2017,04,07,07,41,988.66
2017,04,07,07,42,988.66
2017,04,07,07,43,988.66
2017,04,07,07,44,988.66
2017,04,07,07,45,988.66
2017,04,07,07,46,988.66
2017,04,07,07,47,988.59
2017,04,07,07,48,988.52
2017,04,07,07,49,988.55
2017,04,07,07,50,988.62
2017,04,07,07,51,988.59
2017,04,07,07,52,988.59
2017,04,07,07,53,988.52
2017,04,07,07,54,988.52
2017,04,07,07,55,988.52
2017,04,07,07,56,988.49
2017,04,07,07,57,988.49
2017,04,07,07,58,988.52
2017,04,07,07,59,988.55
2017,04,07,08,00,988.55
2017,04,07,08,01,988.55
2017,04,07,08,02,988.52
2017,04,07,08,03,988.49
2017,04,07,08,04,988.52
2017,04,07,08,05,988.45
2017,04,07,08,06,988.45
2017,04,07,08,07,988.42
2017,04,07,08,08,988.42
2017,04,07,08,09,988.42
2017,04,07,08,10,988.45
2017,04,07,08,11,988.42
2017,04,07,08,12,988.39
2017,04,07,08,13,988.35
2017,04,07,08,14,988.35
2017,04,07,08,15,988.39
2017,04,07,08,16,988.42
2017,04,07,08,17,988.39
2017,04,07,08,18,988.42
2017,04,07,08,19,988.39
2017,04,07,08,20,988.35
2017,04,07,08,21,988.39
2017,04,07,08,22,988.45
2017,04,07,08,23,988.39
2017,04,07,08,24,988.42
2017,04,07,08,25,988.42
2017,04,07,08,26,988.45
2017,04,07,08,27,988.42
2017,04,07,08,28,988.39
2017,04,07,08,29,988.42
2017,04,07,08,30,988.45
2017,04,07,08,31,988.35
2017,04,07,08,32,988.35
2017,04,07,08,33,988.32
2017,04,07,08,34,988.32
2017,04,07,08,35,988.28
2017,04,07,08,36,988.28
2017,04,07,08,37,988.25
2017,04,07,08,38,988.28
2017,04,07,08,39,988.28
2017,04,07,08,40,988.25
2017,04,07,08,41,988.32
2017,04,07,08,42,988.28
2017,04,07,08,43,988.35
2017,04,07,08,44,988.35
2017,04,07,08,45,988.35
2017,04,07,08,46,988.32
2017,04,07,08,47,988.32
2017,04,07,08,48,988.28
2017,04,07,08,49,988.28
2017,04,07,08,50,988.32
2017,04,07,08,51,988.28
2017,04,07,08,52,988.25
2017,04,07,08,53,988.28
2017,04,07,08,54,988.28
2017,04,07,08,55,988.25
2017,04,07,08,56,988.28
2017,04,07,08,57,988.25
2017,04,07,08,58,988.15
2017,04,07,08,59,988.22
2017,04,07,09,00,988.15
2017,04,07,09,01,988.21
2017,04,07,09,02,988.18
2017,04,07,09,03,988.18
2017,04,07,09,04,988.18
2017,04,07,09,05,988.22
2017,04,07,09,06,988.22
2017,04,07,09,07,988.11
2017,04,07,09,08,988.15
2017,04,07,09,09,988.11
2017,04,07,09,10,988.11
2017,04,07,09,11,988.08
2017,04,07,09,12,988.05
2017,04,07,09,13,988.08
2017,04,07,09,14,988.02
2017,04,07,09,15,987.95
2017,04,07,09,16,987.98
2017,04,07,09,17,987.95
2017,04,07,09,18,987.95
2017,04,07,09,19,987.84
2017,04,07,09,20,987.88
2017,04,07,09,21,987.91
2017,04,07,09,22,987.91
2017,04,07,09,23,987.88
2017,04,07,09,24,987.91
2017,04,07,09,25,987.88
2017,04,07,09,26,987.98
2017,04,07,09,27,987.98
2017,04,07,09,28,988.01
2017,04,07,09,29,987.91
2017,04,07,09,30,987.88
2017,04,07,09,31,987.88
2017,04,07,09,32,987.84
2017,04,07,09,33,987.91
2017,04,07,09,34,987.91
2017,04,07,09,35,987.88
2017,04,07,09,36,987.84
2017,04,07,09,37,987.84
2017,04,07,09,38,987.72
2017,04,07,09,39,987.74
2017,04,07,09,40,987.71
2017,04,07,09,41,987.67
2017,04,07,09,42,987.61
2017,04,07,09,43,987.57
2017,04,07,09,44,987.57
2017,04,07,09,45,987.57
2017,04,07,09,46,987.54
2017,04,07,09,47,987.57
2017,04,07,09,48,987.54
2017,04,07,09,49,987.61
2017,04,07,09,50,987.64
2017,04,07,09,51,987.64
2017,04,07,09,52,987.57
2017,04,07,09,53,987.64
2017,04,07,09,54,987.64
2017,04,07,09,55,987.64
2017,04,07,09,56,987.64
2017,04,07,09,57,987.71
2017,04,07,09,58,987.78
2017,04,07,09,59,987.81
2017,04,07,10,00,987.88
2017,04,07,10,01,987.97
2017,04,07,10,02,987.95
2017,04,07,10,03,987.95
2017,04,07,10,04,987.98
2017,04,07,10,05,987.98
2017,04,07,10,06,987.98
2017,04,07,10,07,988.01
2017,04,07,10,08,988.01
2017,04,07,10,09,987.96
2017,04,07,10,10,987.95
2017,04,07,10,11,987.91
2017,04,07,10,12,987.84
2017,04,07,10,13,987.88
2017,04,07,10,14,987.84
2017,04,07,10,15,987.84
2017,04,07,10,16,987.81
2017,04,07,10,17,987.84
2017,04,07,10,18,987.91
2017,04,07,10,19,987.88
2017,04,07,10,20,987.74
2017,04,07,10,21,987.74
2017,04,07,10,22,987.74
2017,04,07,10,23,987.74
2017,04,07,10,24,987.74
2017,04,07,10,25,987.74
2017,04,07,10,26,987.74
2017,04,07,10,27,987.71
2017,04,07,10,28,987.78
2017,04,07,10,29,987.71
2017,04,07,10,30,987.78
2017,04,07,10,31,987.74
2017,04,07,10,32,987.74
2017,04,07,10,33,987.78
2017,04,07,10,34,987.74
2017,04,07,10,35,987.74
2017,04,07,10,36,987.74
2017,04,07,10,37,987.78
2017,04,07,10,38,987.74
2017,04,07,10,39,987.81
2017,04,07,10,40,987.81
2017,04,07,10,41,987.78
2017,04,07,10,42,987.78
2017,04,07,10,43,987.81
2017,04,07,10,44,987.74
2017,04,07,10,45,987.71
2017,04,07,10,46,987.71
2017,04,07,10,47,987.71
2017,04,07,10,48,987.64
2017,04,07,10,49,987.64
2017,04,07,10,50,987.67
2017,04,07,10,51,987.67
2017,04,07,10,52,987.67
2017,04,07,10,53,987.67
2017,04,07,10,54,987.67
2017,04,07,10,55,987.67
2017,04,07,10,56,987.67
2017,04,07,10,57,987.67
2017,04,07,10,58,987.64
2017,04,07,10,59,987.61
2017,04,07,11,00,987.61
2017,04,07,11,01,987.54
2017,04,07,11,02,987.54
2017,04,07,11,03,987.51
2017,04,07,11,04,987.51
2017,04,07,11,05,987.57
2017,04,07,11,06,987.57
2017,04,07,11,07,987.57
2017,04,07,11,08,987.57
2017,04,07,11,09,987.61
2017,04,07,11,10,987.57
2017,04,07,11,11,987.57
2017,04,07,11,12,987.54
2017,04,07,11,13,987.54
2017,04,07,11,14,987.57
2017,04,07,11,15,987.54
2017,04,07,11,16,987.44
2017,04,07,11,17,987.51
2017,04,07,11,18,987.47
2017,04,07,11,19,987.44
2017,04,07,11,20,987.47
2017,04,07,11,21,987.47
2017,04,07,11,22,987.51
2017,04,07,11,23,987.51
2017,04,07,11,24,987.54
2017,04,07,11,25,987.47
2017,04,07,11,26,987.47
2017,04,07,11,27,987.40
2017,04,07,11,28,987.40
2017,04,07,11,29,987.44
2017,04,07,11,30,987.40
2017,04,07,11,31,987.40
2017,04,07,11,32,987.34
2017,04,07,11,33,987.34
2017,04,07,11,34,987.23
2017,04,07,11,35,987.27
2017,04,07,11,36,987.27
2017,04,07,11,37,987.23
2017,04,07,11,38,987.27
2017,04,07,11,39,987.20
2017,04,07,11,40,987.17
2017,04,07,11,41,987.17
2017,04,07,11,42,987.13
2017,04,07,11,43,987.17
2017,04,07,11,44,987.13
2017,04,07,11,45,987.10
2017,04,07,11,46,987.10
2017,04,07,11,47,987.13
2017,04,07,11,48,987.06
2017,04,07,11,49,987.00
2017,04,07,11,50,986.96
2017,04,07,11,51,986.93
2017,04,07,11,52,986.86
2017,04,07,11,53,986.90
2017,04,07,11,54,986.86
2017,04,07,11,55,986.90
2017,04,07,11,56,986.93
2017,04,07,11,57,987.00
2017,04,07,11,58,986.96
2017,04,07,11,59,986.93
2017,04,07,12,00,987.00
2017,04,07,12,01,986.93
2017,04,07,12,02,986.96
2017,04,07,12,03,986.90
2017,04,07,12,04,986.83
2017,04,07,12,05,986.83
2017,04,07,12,06,986.76
2017,04,07,12,07,986.79
2017,04,07,12,08,986.79
2017,04,07,12,09,986.83
2017,04,07,12,10,986.79
2017,04,07,12,11,986.76
2017,04,07,12,12,986.73
2017,04,07,12,13,986.76
2017,04,07,12,14,986.73
2017,04,07,12,15,986.73
2017,04,07,12,16,986.79
2017,04,07,12,17,986.73
2017,04,07,12,18,986.73
2017,04,07,12,19,986.69
2017,04,07,12,20,986.76
2017,04,07,12,21,986.69
2017,04,07,12,22,986.76
2017,04,07,12,23,986.66
2017,04,07,12,24,986.69
2017,04,07,12,25,986.69
2017,04,07,12,26,986.69
2017,04,07,12,27,986.62
2017,04,07,12,28,986.56
2017,04,07,12,29,986.62
2017,04,07,12,30,986.66
2017,04,07,12,31,986.59
2017,04,07,12,32,986.56
2017,04,07,12,33,986.56
2017,04,07,12,34,986.46
2017,04,07,12,35,986.46
2017,04,07,12,36,986.42
2017,04,07,12,37,986.42
2017,04,07,12,38,986.39
2017,04,07,12,39,986.49
2017,04,07,12,40,986.39
2017,04,07,12,41,986.42
2017,04,07,12,42,986.39
2017,04,07,12,43,986.42
2017,04,07,12,44,986.46
2017,04,07,12,45,986.49
2017,04,07,12,46,986.49
2017,04,07,12,47,986.46
2017,04,07,12,48,986.46
2017,04,07,12,49,986.42
2017,04,07,12,50,986.42
2017,04,07,12,51,986.42
2017,04,07,12,52,986.39
2017,04,07,12,53,986.39
2017,04,07,12,54,986.39
2017,04,07,12,55,986.42
2017,04,07,12,56,986.46
2017,04,07,12,57,986.46
2017,04,07,12,58,986.46
2017,04,07,12,59,986.46
2017,04,07,13,00,986.42
2017,04,07,13,01,986.29
2017,04,07,13,02,986.32
2017,04,07,13,03,986.32
2017,04,07,13,04,986.35
2017,04,07,13,05,986.26
2017,04,07,13,06,986.29
2017,04,07,13,07,986.18
2017,04,07,13,08,986.18
2017,04,07,13,09,986.18
2017,04,07,13,10,986.22
2017,04,07,13,11,986.25
2017,04,07,13,12,986.32
2017,04,07,13,13,986.35
2017,04,07,13,14,986.35
2017,04,07,13,15,986.39
2017,04,07,13,16,986.35
2017,04,07,13,17,986.39
2017,04,07,13,18,986.42
2017,04,07,13,19,986.49
2017,04,07,13,20,986.42
2017,04,07,13,21,986.46
2017,04,07,13,22,986.42
2017,04,07,13,23,986.46
2017,04,07,13,24,986.49
2017,04,07,13,25,986.46
2017,04,07,13,26,986.46
2017,04,07,13,27,986.49
2017,04,07,13,28,986.49
2017,04,07,13,29,986.52
2017,04,07,13,30,986.56
2017,04,07,13,31,986.59
2017,04,07,13,32,986.52
2017,04,07,13,33,986.46
2017,04,07,13,34,986.46
2017,04,07,13,35,986.46
2017,04,07,13,36,986.39
2017,04,07,13,37,986.42
2017,04,07,13,38,986.42
2017,04,07,13,39,986.39
2017,04,07,13,40,986.42
2017,04,07,13,41,986.55
2017,04,07,13,42,986.52
2017,04,07,13,43,986.52
2017,04,07,13,44,986.49
2017,04,07,13,45,986.59
2017,04,07,13,46,986.56
2017,04,07,13,47,986.49
2017,04,07,13,48,986.52
2017,04,07,13,49,986.52
2017,04,07,13,50,986.59
2017,04,07,13,51,986.49
2017,04,07,13,52,986.46
2017,04,07,13,53,986.49
2017,04,07,13,54,986.52
2017,04,07,13,55,986.56
2017,04,07,13,56,986.62
2017,04,07,13,57,986.69
2017,04,07,13,58,986.66
2017,04,07,13,59,986.59
2017,04,07,14,00,986.73
2017,04,07,14,01,986.69
2017,04,07,14,02,986.73
2017,04,07,14,03,986.59
2017,04,07,14,04,986.56
2017,04,07,14,05,986.56
2017,04,07,14,06,986.56
2017,04,07,14,07,986.52
2017,04,07,14,08,986.46
2017,04,07,14,09,986.46
2017,04,07,14,10,986.58
2017,04,07,14,11,986.59
2017,04,07,14,12,986.49
2017,04,07,14,13,986.52
2017,04,07,14,14,986.52
2017,04,07,14,15,986.49
2017,04,07,14,16,986.49
2017,04,07,14,17,986.49
2017,04,07,14,18,986.56
2017,04,07,14,19,986.59
2017,04,07,14,20,986.56
2017,04,07,14,21,986.52
2017,04,07,14,22,986.42
2017,04,07,14,23,986.42
2017,04,07,14,24,986.46
2017,04,07,14,25,986.42
2017,04,07,14,26,986.39
2017,04,07,14,27,986.42
2017,04,07,14,28,986.39
2017,04,07,14,29,986.46
2017,04,07,14,30,986.52
2017,04,07,14,31,986.52
2017,04,07,14,32,986.49
2017,04,07,14,33,986.39
2017,04,07,14,34,986.39
2017,04,07,14,35,986.42
2017,04,07,14,36,986.46
2017,04,07,14,37,986.49
2017,04,07,14,38,986.49
2017,04,07,14,39,986.56
2017,04,07,14,40,986.47
2017,04,07,14,41,986.46
2017,04,07,14,42,986.39
2017,04,07,14,43,986.25
2017,04,07,14,44,986.39
2017,04,07,14,45,986.25
2017,04,07,14,46,986.42
2017,04,07,14,47,986.39
2017,04,07,14,48,986.42
2017,04,07,14,49,986.46
2017,04,07,14,50,986.42
2017,04,07,14,51,986.42
2017,04,07,14,52,986.49
2017,04,07,14,53,986.33
2017,04,07,14,54,986.32
2017,04,07,14,55,986.29
2017,04,07,14,56,986.32
2017,04,07,14,57,986.25
2017,04,07,14,58,986.32
2017,04,07,14,59,986.22
2017,04,07,15,00,986.38
2017,04,07,15,01,986.42
2017,04,07,15,02,986.35
2017,04,07,15,03,986.32
2017,04,07,15,04,986.29
2017,04,07,15,05,986.25
2017,04,07,15,06,986.38
2017,04,07,15,07,986.32
2017,04,07,15,08,986.32
2017,04,07,15,09,986.32
2017,04,07,15,10,986.29
2017,04,07,15,11,986.29
2017,04,07,15,12,986.32
2017,04,07,15,13,986.39
2017,04,07,15,14,986.42
2017,04,07,15,15,986.39
2017,04,07,15,16,986.35
2017,04,07,15,17,986.42
2017,04,07,15,18,986.42
2017,04,07,15,19,986.39
2017,04,07,15,20,986.35
2017,04,07,15,21,986.35
2017,04,07,15,22,986.46
2017,04,07,15,23,986.52
2017,04,07,15,24,986.52
2017,04,07,15,25,986.56
2017,04,07,15,26,986.49
2017,04,07,15,27,986.49
2017,04,07,15,28,986.52
2017,04,07,15,29,986.49
2017,04,07,15,30,986.42
2017,04,07,15,31,986.56
2017,04,07,15,32,986.62
2017,04,07,15,33,986.62
2017,04,07,15,34,986.59
2017,04,07,15,35,986.59
2017,04,07,15,36,986.69
2017,04,07,15,37,986.66
2017,04,07,15,38,986.73
2017,04,07,15,39,986.76
2017,04,07,15,40,986.79
2017,04,07,15,41,986.69
2017,04,07,15,42,986.59
2017,04,07,15,43,986.69
2017,04,07,15,44,986.59
2017,04,07,15,45,986.49
2017,04,07,15,46,986.52
2017,04,07,15,47,986.62
2017,04,07,15,48,986.79
2017,04,07,15,49,986.76
2017,04,07,15,50,986.73
2017,04,07,15,51,986.69
2017,04,07,15,52,986.76
2017,04,07,15,53,986.73
2017,04,07,15,54,986.69
2017,04,07,15,55,986.73
2017,04,07,15,56,986.69
2017,04,07,15,57,986.66
2017,04,07,15,58,986.69
2017,04,07,15,59,986.83
2017,04,07,16,00,986.79
2017,04,07,16,01,986.83
2017,04,07,16,02,986.93
2017,04,07,16,03,986.83
2017,04,07,16,04,986.90
2017,04,07,16,05,986.83
2017,04,07,16,06,986.90
2017,04,07,16,07,986.93
2017,04,07,16,08,986.96
2017,04,07,16,09,986.86
2017,04,07,16,10,986.86
2017,04,07,16,11,986.96
2017,04,07,16,12,986.96
2017,04,07,16,13,986.96
2017,04,07,16,14,986.90
2017,04,07,16,15,986.83
2017,04,07,16,16,986.79
2017,04,07,16,17,986.76
2017,04,07,16,18,986.86
2017,04,07,16,19,986.79
2017,04,07,16,20,986.86
2017,04,07,16,21,986.90
2017,04,07,16,22,986.86
2017,04,07,16,23,986.90
2017,04,07,16,24,986.86
2017,04,07,16,25,987.03
2017,04,07,16,26,986.90
2017,04,07,16,27,986.90
2017,04,07,16,28,986.90
2017,04,07,16,29,987.00
2017,04,07,16,30,987.03
2017,04,07,16,31,987.00
2017,04,07,16,32,987.00
2017,04,07,16,33,986.96
2017,04,07,16,34,986.93
2017,04,07,16,35,987.00
2017,04,07,16,36,986.96